AQI (105)

Current Conditions for Foresthill, CA. Dawn, Clear skies, Dry   
Visibility: 10 miles
Space WX Alerts: EXTENDED WARNING:  Geomagnetic K-index of 4 expected ( Latest Alert ) - Issue Time: 2018 Sep 22 1155 UTC

  Summary / Temperature 

Current Temperature
62.7°F
17.1°C
(24/hr Ago)
63.4°F
(Apparent temp)
56.7°F
Comfortable
Wind Chill Graphs
62.2°F 

62.7°F/ 17.1°C
 --- Virtual Temp: 64.2°F ---

 Temp Rate:

 24/hr Difference:

 Avg Running Temp:

 Todays High:

 Todays Low:

 Y-days High:

 Y-days Low:

 Todays WChill:

 Y-days WChill:

 Evapotranspiration:

-0.6°F/hr 

-0.7°F

63.3°F

67.5°F 12:00am

62.7°F 7:01am

84.9°F 1:54pm

63.3°F 7:38am

61.2°F 6:56am

61.8°F 7:46am

0.023 in

115' Above Ground

 Temperature:

 6'AGL VRS 115'AGL:

 Avg Running Temp:

 Humidity:

 Todays High:

 Todays Low:

 Y-days High:

 Y-days Low:

65.0°F 

+2.3°F

65.5°F

32% 

69.0°F 12:00am

65.0°F 5:26am

85.0°F 4:13pm

66.0°F 5:56am

Temp & Humidity Graphs

  Wind 

Wind Speed

 4.0 mph

Gusting to

 14.0 mph

Wind from ESE

103°  ESE

Light breeze

 Avg speed:

 Wind Run:

 Peak Gust:

  5.0 mph 

32.0 miles

  18.0 mph 12:00am

  Almanac  

Moon age: 12 days,9 hours,42 minutes,94%

Waxing Gibbous
94%
Illuminated
12 days in cycle

 Moonrise:

 Moonset:

 Sunrise:

 Sunset:

 Solar Noon:

6:11pm

4:21am

6:52am

7:01pm

12:56pm

2min 32s less daylight tomorrow 

  Solar Radiation 

(Current Solar)
  11 W/m2
(Todays High)
 11 W/m2@7:03am
Feels like: 61°F in the sun

Rain

 Rain Today:

 Rain Rate (/hr):

 Rain last hour:

 Rain Yesterday:

 This Month:

 Season Total:

119 Days Since Last Rain Day

0.00 in

0.000 in

0.00 in

0.00 in

0.00 in

0.00 in

Updated Time

Updated: 9/22/18  7:04am

(Updated  sec ago)

Humidity & Barometer

 Humidity:

 Wetbulb:

 Dew Point:

 Barometer:

35% 

50.9°F 

34.6°F 

29.963 inHg 

 Baro Trend:  Steady 
Northern Calif
Preparedness
Fire 
Level 

    UV Index  

(Current UV)
0.0  None
(Todays High) @ 12:00am
0.0   None

National Weather Service Forecast

Today

Today: Sunny
Sunny
Tonight

Tonight: Mostly Clear
Mostly Clear
Sunday

Sunday: Sunny
Sunny
Sunday
Night
Sunday Night: Clear
Clear
Monday

Monday: Sunny
Sunny
Monday
Night
Monday Night: Clear
Clear
Hi 81 °F Lo 61 °F Hi 79 °F Lo 57 °F Hi 81 °F Lo 60 °F

Foresthill Probe 2 Stats  
Foresthill Probe 2: is located on Thomas Street
at 3000 feet. The main Foresthill Weather site
is located on Melody ln at the 2860 foot elevation

Light Air
59.8°F
15.4°C
Temp Rate:
-0.5°F
Calm
Gusting to
2.0 mph
(Humidity)
41%
Wind from ESE
115°  ESE
Updated: 22/09/18 - 06:59:46
 Todays High: 63.9°F 00:00
 Todays Low: 59.8°F 06:47
 Rain Today: 0.00 in
 Season Total: 0.00 in

Foresthill Wx: Monthly,Yearly, Highs and Lows 

Foresthill  
This Weather Data is coming from the main Foresthill
Weather site located on Melody ln at the 2860 foot
elevation
Not Foresthill Probe 2
Weather Data
Month
  High
Month
  Low
Year
High
Year
Low
Temp 91.8°F
9/5/18
52.8°F
9/16/18
93.9°F
8/10/18
21.9°F
2/23/18
Humidity 64%
9/1/18
13%
9/7/18
100%
1/8/18
12%
7/8/18
Heat Index 88.3°F
9/5/18
53.4°F
9/16/18
93.3°F
7/25/18
27.1°F
2/20/18
Wind Chill 91.8°F
9/5/18
49.6°F
9/14/18
93.9°F
8/10/18
9.2°F
2/23/18
Wind Gust 22 mph
9/12/18
0 mph
9/1/18
43 mph
3/1/18
0 mph
1/1/18
Barometer 30.02 in
9/6/18
29.77 in
9/11/18
30.55 in
1/27/18
29.60 in
6/16/18
ET 0.22 in
9/11/18
0.00 in
9/1/18
0.25 in
6/24/18
0.00 in
1/1/18
Dew Point 55.5°F
9/3/18
29.0°F
9/9/18
66.9°F
7/24/18
7.6°F
2/11/18
Pacific Satellite US Radar Satellite Imagery Sacramento,CA.  (click to enlarge)
NWS Weather Forecast - Summary
Updated: Saturday, Sepember 22, 2018 - 3:30am PDT
Locally Gusty Sierra Winds this Weekend Locally Gusty North Wind Sunday Night into Monday
Current Interstate Highway Conditions for I-80 & US-50

[I 80: IN THE SAN FRANCISCO BAY AREA - SOLANO CO]
no traffic restrictions are reported for this area.

[I 80: IN THE NORTHERN CALIFORNIA AREA & SIERRA NEVADA]
no traffic restrictions are reported for this area.

[US 50: IN THE SACRAMENTO VALLEY & THE LAKE TAHOE BASIN]
the eastbound connector to northbound i 5 /in sacramento/ (sacramento co)   Is closed from 11:00pm each night to 5:00am each morning monday thru friday thru 9/28/18 - due to construction - a detour is available
NWS Weather Forecast: Today and Tonight (Updated: Sat, 22-Sep-2018 2:15am PDT)
Today

Today: Sunny
Sunny

Hi 81 °F
NWS forecast: Sunny, with a high near 81. South wind around 9 mph.
Tonight

Tonight: Mostly Clear
Mostly Clear

Lo 61 °F
NWS forecast: Mostly clear, with a low around 61. Southeast wind around 7 mph.
YR.NO 10 Day Weather forecast
Last update: 09/22/2018 @ 01:01
Next update: 09/22/2018 @ 13:00
Provided by: 22
      Temperature Precipitation Pressure Wind  
Today
09/22/2018
04:00 06:00 50°F   29.95 inHg Light breeze from east-northeast 5 mph
  06:00 12:00 50°F   29.96 inHg Light breeze from east-northeast 6 mph
  12:00 18:00 81°F   29.94 inHg Light breeze from southwest 7 mph
  18:00 00:00 75°F   29.89 inHg Light breeze from south-southwest 4 mph
    (Click to enlarge)
meteogram

    Forecast for next 9 days

      Temperature Precip Pressure Wind  
Sunday
09/23/2018
00:00 06:00 57°F   29.88 inHg Light breeze from east 6 mph
  06:00 12:00 54°F   29.87 inHg Light breeze from east 6 mph
  12:00 18:00 77°F   29.89 inHg Gentle breeze from southwest 8 mph
  18:00 00:00 73°F   29.84 inHg Light breeze from west-southwest 4 mph
      Temperature Precip Pressure Wind  
Monday
09/24/2018
00:00 06:00 52°F   29.86 inHg Light breeze from east-northeast 6 mph
  06:00 12:00 48°F   29.85 inHg Light breeze from east-northeast 7 mph
  12:00 18:00 82°F   29.85 inHg Light breeze from southwest 6 mph
  17:00 23:00 81°F   29.83 inHg Light breeze from west-southwest 4 mph
  23:00 05:00 55°F   29.89 inHg Light breeze from east-northeast 6 mph
      Temperature Precip Pressure Wind  
Tuesday
09/25/2018
05:00 11:00 61°F   29.88 inHg Gentle breeze from east-northeast 9 mph
  11:00 17:00 84°F   29.90 inHg Light breeze from southwest 4 mph
  17:00 23:00 84°F   29.88 inHg Light breeze from west-southwest 4 mph
  23:00 05:00 59°F   29.92 inHg Light breeze from east-northeast 7 mph
      Temperature Precip Pressure Wind  
Wednesday
09/26/2018
05:00 11:00 57°F   29.91 inHg Light breeze from east-northeast 7 mph
  11:00 17:00 86°F   29.94 inHg Light breeze from south-southwest 4 mph
  17:00 23:00 86°F   29.88 inHg Light breeze from west-southwest 4 mph
  23:00 05:00 57°F   29.89 inHg Light breeze from east-northeast 4 mph
      Temperature Precip Pressure Wind  
Thursday
09/27/2018
05:00 11:00 54°F   29.85 inHg Light breeze from east-northeast 6 mph
  11:00 17:00 86°F   29.85 inHg Light breeze from southwest 4 mph
  17:00 23:00 86°F   29.78 inHg Light breeze from southwest 6 mph
  23:00 05:00 57°F   29.79 inHg Light breeze from east-northeast 5 mph
      Temperature Precip Pressure Wind  
Friday
09/28/2018
05:00 11:00 55°F   29.77 inHg Light breeze from east-northeast 7 mph
  11:00 17:00 84°F   29.79 inHg Light breeze from southwest 5 mph
  17:00 23:00 79°F   29.76 inHg Light breeze from southwest 6 mph
  23:00 05:00 61°F   29.81 inHg Light air from east 3 mph
      Temperature Precip Pressure Wind  
Saturday
09/29/2018
05:00 11:00 54°F   29.84 inHg Light air from east 3 mph
  11:00 17:00 68°F   29.92 inHg Light breeze from southwest 4 mph
  17:00 23:00 70°F   29.86 inHg Light breeze from southwest 7 mph
  23:00 05:00 55°F   29.93 inHg Light breeze from south 4 mph
      Temperature Precip Pressure Wind  
Sunday
09/30/2018
05:00 11:00 50°F   29.95 inHg Light air from south 2 mph
  11:00 17:00 61°F   29.99 inHg Light breeze from southwest 5 mph
  17:00 23:00 64°F   29.91 inHg Light breeze from west-southwest 4 mph
  23:00 05:00 52°F   29.91 inHg Light air from east 2 mph
      Temperature Precip Pressure Wind  
Monday
10/01/2018
05:00 11:00 46°F   29.87 inHg Light air from east-northeast 3 mph
  11:00 17:00 63°F   29.83 inHg Light breeze from west-southwest 5 mph
How Close Are We To this Month's Temperature Record ?
Updated Saturday, Sep 22, 2018- 6:55:01 AM

Current Temperature: 62.7°F

September's High: Temperature Record 95.9°F - Set on Wed, Sep 9, 2015 - 1:44:00 PM
We are currently 33.2°F Less than this Month's record High

September's Low: Temperature Record 44.1°F - Set on Sun, Sep 22, 2013 - 7:41:00 AM
We are currently 18.6°F More than this Month's record Low

Weather History For Saturday, September 22, 2018


On this Day - In Weather History ...
Data courtesy of weatherforyou.com
powered by Cumulus v1.9.3 (1059)
Ambient Weather VWS v14.00
Top Contact Website Map Copyright © 2007 - 2018 Foresthillweather.com Never base important decisions on this or any weather information obtained from the Internet